www.pogodaiklimat.ru

АРХИВ ПОГОДЫ в Ростове-на-Дону

Время (UTC), дата Ветер
(напр.,м/с)
 
Видим.   Явления Облачность Т
(С)
Тd
(С)
f
(%)
Тe
(С)
Тes
(С)
Комфортность P
(гПа)
Po
(гПа)
Тmin
(С)
Tmax
(С)
R
(мм)
S
(см)
15 26.08 З 3 10 км 5/0
[Ci fib]
+26.0 +8.8 34 +26 +27 жарко 1014.2 1005.7 +28.7
18 26.08 СЗ 2 10 км 6/0
[Ci fib]
+21.8 +13.2 58 +24 +24 комфорт 1015.1 1006.4
21 26.08 В 4 10 км 8/0
[Ac trans Ci]
+18.0 +6.1 46 +18 +18 по сезону 1014.6 1005.8
00 27.08 СВ 4 10 км 9/0
[Ac trans Ci fib]
+17.2 +5.9 47 +17 +17 по сезону 1013.8 1005.0
03 27.08 В 4 10 км 9/0
[Ac trans Ci fib]
+18.2 +6.3 46 +18 +18 по сезону 1013.0 1004.2 +16.4
06 27.08 В 3 10 км 9/0
[Ac trans Ci fib]
+21.0 +10.3 50 +23 +27 комфорт 1012.6 1003.9
09 27.08 Ю 2 10 км 3/1 1000 м
[Cu hum Ac trans]
+29.1 +12.5 36 +30 +41 жарко 1010.9 1002.5
12 27.08 З 2 10 км 5/3 1500 м
[Cu med, cong Ac trans]
+31.6 +10.3 27 +31 +36 жарко 1009.0 1000.7
15 27.08 З 3 10 км 6/0
[Ac trans Ci fib]
+28.7 +8.4 28 +28 +29 жарко 1008.1 999.7 +32.1
18 27.08 СЗ 2 10 км 3/0
[Ci fib]
+23.8 +8.0 36 +24 +24 комфорт 1008.2 999.6
21 27.08 СЗ 2 10 км 4/0
[Ac trans Ci fib]
+18.1 +10.7 62 +19 +19 по сезону 1007.2 998.5
00 28.08 СЗ 2 10 км 8/0
[Ac trans]
+21.0 +10.1 50 +23 +23 комфорт 1006.4 997.8
03 28.08 З 2 10 км 4/0
[Ac trans]
+17.6 +11.2 66 +18 +18 по сезону 1006.9 998.2 +16.2
06 28.08 З 3 10 км 1/0
[Ac trans]
+25.8 +13.3 46 +28 +33 жарко 1007.0 998.5
09 28.08 ЮЗ 6 10 км 4/0
[Ac trans]
+29.1 +13.3 38 +31 +35 жарко 1006.2 997.8
12 28.08 З 7-10
{10}
10 км 8/3 1500 м
[Cu med, cong Ac trans Ci fib]
+31.2 +13.4 34 +32 +34 жарко 1005.3 997.0
15 28.08 З 7-11
{12}
10 км 6/0
[Ac trans Ci fib]
+26.3 +17.2 57 +30 +30 душно 1005.8 997.4 +32.2
18 28.08 З 6
{12}
10 км 6/4 300 м
[Sc Ac trans]
+23.3 +20.5 84 +31 +31 очень
душно
1007.4 998.9
21 28.08 СЗ 5-10
{12}
10 км 8/5 630 м
[Sc Ac trans]
+20.5 +14.7 69 +23 +23 комфорт 1009.5 1000.8
00 29.08 З 4
{12}
10 км ясно +16.0 +12.0 77 +15 +15 по сезону 1012.1 1003.3
03 29.08 З 3 10 км 3/1 300 м
[St Ac trans]
+13.6 +11.1 85 +12 +12 холодно 1013.9 1005.0 +13.6
06 29.08 СЗ 4 10 км 3/0
[Ac trans]
+16.7 +10.7 68 +16 +20 прохладно 1015.5 1006.7
09 29.08 З 4 10 км 4/4 1000 м
[Cu hum]
+22.4 +9.7 44 +24 +29 комфорт 1015.3 1006.6
12 29.08 З 5 10 км 5/5 1200 м
[Cu med, cong]
+23.5 +11.3 46 +25 +27 комфорт 1014.6 1006.0
15 29.08 З 5 10 км 3/3 1000 м
[Cu med, cong]
+22.1 +12.5 54 +25 +25 комфорт 1015.0 1006.3 +24.3
18 29.08 З 2 10 км 1/0
[Ac trans]
+19.9 +12.4 62 +22 +22 комфорт 1016.3 1007.6
21 29.08 СЗ 2 10 км ясно +17.3 +7.3 52 +18 +18 по сезону 1017.5 1008.7
00 30.08 СЗ 2 10 км ясно +15.6 +6.9 56 +16 +16 по сезону 1018.6 1009.7
03 30.08 СЗ 1 10 км ясно +14.0 +7.1 63 +14 +14 прохладно 1019.8 1010.8 +14.0
06 30.08 З 1 10 км ясно +21.6 +7.8 41 +23 +30 комфорт 1020.5 1011.8 +13.7
09 30.08 З 3 10 км 3/3 1500 м
[Cu med, cong]
+24.1 +5.2 29 +24 +31 комфорт 1020.0 1011.3
12 30.08 З 5 10 км 4/3 1500 м
[Cu hum Ac trans]
+24.7 +5.0 28 +24 +27 комфорт 1018.7 1010.1
15 30.08 З 4 10 км 3/0
[Ci fib]
+23.4 +6.0 32 +24 +24 комфорт 1018.5 1009.8 +25.7
18 30.08 З 3 10 км ясно +19.9 +10.5 55 +22 +22 комфорт 1019.5 1010.7
21 30.08 С 2 10 км ясно +17.2 +8.0 55 +18 +18 по сезону 1019.5 1010.6
00 31.08 С 2 10 км ясно +15.8 +5.6 51 +16 +16 по сезону 1019.8 1010.9
03 31.08 В 3 10 км 3/0
[Ci fib]
+12.6 +5.5 62 +11 +11 холодно 1020.3 1011.3 +11.6
06 31.08 В 5 10 км 1/0
[Ci fib]
+21.2 +5.8 37 +22 +25 комфорт 1020.2 1011.5
09 31.08 В 4 10 км ясно +24.8 +4.4 27 +24 +33 комфорт 1019.2 1010.6
12 31.08 В 4 10 км ясно +25.9 +3.3 23 +25 +30 комфорт 1017.7 1009.1
15 31.08 В 5 10 км ясно +24.9 +3.3 25 +24 +24 комфорт 1016.9 1008.3 +26.7
18 31.08 СВ 5 10 км 4/0
[Ci fib]
+19.3 +3.1 34 +19 +19 по сезону 1017.1 1008.3
21 31.08 В 5
{11}
10 км ясно +19.1 +6.3 43 +19 +19 тепло 1016.8 1008.0
00 1.09 В 5
{11}
10 км 4/0
[Ac trans]
+17.9 +6.1 46 +18 +18 тепло 1016.7 1007.9
03 1.09 В 7-11
{11}
10 км 4/0
[Ac trans]
+17.9 +5.5 44 +17 +17 по сезону 1016.5 1007.7 +17.5
06 1.09 В 9-12
{11}
10 км 3/0
[Ac trans]
+22.5 +6.3 35 +23 +24 комфорт 1016.7 1008.0
09 1.09 В 8-13
{12}
10 км 3/0
[Ac trans Ci fib]
+28.5 +10.0 32 +29 +31 жарко 1015.5 1007.0
12 1.09 В 10-14
{14}
10 км 4/1 1000 м
[Cu hum Ci fib]
+29.6 +8.9 27 +29 +29 жарко 1014.3 1005.9
15 1.09 В 8-11
{14}
10 км 6/0
[Ac trans Ci fib]
+28.4 +6.6 25 +27 +28 жарко 1013.8 1005.3 +30.5
18 1.09 В 9-12
{14}
10 км 3/0
[Ci fib]
+23.2 +6.4 34 +24 +24 комфорт 1014.7 1006.1
21 1.09 В 7-10
{12}
10 км ясно +20.6 +6.4 40 +21 +21 комфорт 1015.3 1006.6
00 2.09 В 7
{12}
10 км 3/0
[Ci fib]
+18.6 +4.9 40 +18 +18 тепло 1015.9 1007.1
03 2.09 В 6 10 км 6/0
[Ac trans Ci fib]
+16.8 +5.1 46 +16 +16 по сезону 1015.9 1007.1 +16.7
06 2.09 В 7-10
{10}
10 км 4/0
[Ci fib]
+21.8 +9.0 44 +23 +25 комфорт 1016.0 1007.3 +16.7
09 2.09 В 11-15
{15}
10 км 5/0
[Ac trans Ci fib]
+27.8 +9.8 32 +28 +28 жарко 1014.8 1006.3
12 2.09 В 10-15
{16}
10 км 4/0
[Ac trans Ci fib]
+29.7 +8.2 26 +29 +29 жарко 1013.7 1005.3

 

Обсудить погоду в Ростове-на-Дону на МЕТЕОФОРУМЕ

 

Местоположение метеостанции Ростов-на-Дону (Ростовская область, Россия): широта 47.27 долгота 39.82 высота над уровнем моря 75 м.

В архиве по умолчанию представлена погода в Ростове-на-Дону за последнюю неделю. Архивные данные за месяц целиком и за предыдущие месяцы, начиная с января 2011 года, Вы можете получить, выбрав интересующий диапазон дат из раскрывающегося списка и нажав кнопку "Ввод!".

Внимание! Время в таблицах - всемирное. Для получения местного времени необходимо прибавить поправку, которая в Ростове-на-Дону равна 4 ч.

Ветер - указаны скорость ветра в м/с - средняя за 10 мин, порывы в срок и между сроками (в фигурных скобках) и направление, откуда дует ветер: С - северный, СВ - северо-восточный, В - восточный, ЮВ - юго-восточный, Ю - южный, ЮЗ - юго-западный, З - западный, СЗ - северо-западный.
Видимость - горизонтальная дальность видимости в метрах или километрах. При видимости от 1 до 10 км при отсутствии осадков обычно наблюдается дымка, при ухудшении видимости до 1 км и менее - туман. В сухую погоду видимость может ухудшаться дымом, пылью или мглою.
Явления - указаны атсосферные явления, наблюдавшиеся в срок или в последний час перед сроком; фигурными скобками обозначены явления, наблюдавшиеся между сроками (за 1-3 часа до срока); квадратными скобками обозначены град или гололедные отложения с указанием их диаметра в мм.
Облачность - указаны через наклонную черту общая и нижняя облачность в баллах и высота нижней границы облаков в метрах; квадратными скобками обозначены формы облаков: Ci - перистые, Cs - перисто-слоистые, Cc - перисто-кучевые, Ac - высококучевые, As - высокослоистые, Sc - слоисто-кучевые, Ns - слоисто-дождевые, Cu - кучевые, Cb - кучево-дождевые. Подробнее классификацию облаков см. в Атласе облаков (PDF).
T - Температура воздуха - температура, измеренная на высоте 2 м над землей.
Td - Температура точки росы - температура, при понижении до которой содержащийся в воздухе водяной пар достигнет насыщения.
f - Относительная влажность воздуха - влажноcть воздуха, измеренная на высоте 2 м над землей.
Te - Эффективная температура - температура, которую ощущает одетый по сезону человек в тени. Характеристика душности погоды. При расчете учитывается влияние влажности воздуха и скорости ветра на теплоощущения человека.
Tes - Эффективная температура на солнце - температура, которую ощущает человек, с поправкой на солнечный нагрев. Характеристика знойности погоды. Зависит от высоты солнца над горизонтом, облачности и скорости ветра. Ночью, в пасмурную погоду, а также при ветре 12 м/с и более поправка равна нулю.
P - Атмосферное давление - приведенное к уровню моря атмосферное давление.
Po - Атмосферное давление - измеренное на уровне метеостанции атмосферное давление.
Tmin - Минимальная температура - минимум температуры воздуха на высоте 2 м над землей.
Tmax - Максимальная температура - максимум температуры воздуха на высоте 2 м над землей.
R - Количество осадков - Количество выпавших осадков, мм.
S - Снежный покров - Высота снежного покрова, см.